www.pogodaiklimat.ru

Погода и климат >> Архив погоды >> Германия >> Вюрцбург


ПОГОДА в Вюрцбурге

  • Прогноз погоды в Вюрцбурге
  • Монитор погоды в Вюрцбурге

АРХИВ ПОГОДЫ в Вюрцбурге

Время (UTC), дата Ветер
(напр.,м/с)
 
Видим.   Явления Облачность Т
(С)
Тd
(С)
f
(%)
Тe
(С)
Тes
(С)
Комфортность P
(гПа)
Po
(гПа)
Тmin
(С)
Tmax
(С)
R
(мм)
R24
(мм)
S
(см)
01 13.09 Ю 2-2
{3}
45 км ясно +14.7 +12.6 87 +14 +14 1031.0 998.6
02 13.09 Ю 2-2
{4}
35 км ясно +13.8 +12.3 91 +13 +13 1031.0 998.5
03 13.09 Ю 3 28 км 9/0
[]
+13.5 +12.1 91 +12 +12 1031.1 998.5
04 13.09 Ю 2-2
{3}
23 км ясно +13.2 +12.0 92 +12 +12 1031.2 998.6
05 13.09 Ю 2-2
{2}
22 км 10/10 1110 м
[]
+13.3 +12.1 92 +13 +13 1031.6 999.0
06 13.09 ЮВ 1 30 км 1/0
[]
+14.5 +12.4 87 +15 +15 1031.7 999.2 +13.0 +20.6
07 13.09 Ю 2-2
{2}
29 км 4/4 1200 м
[]
+15.7 +12.4 81 +16 +17 1031.6 999.3
08 13.09 СЗ 2-3
{3}
45 км 6/6 870 м
[]
+20.0 +13.1 64 +22 +24 комфорт 1031.5 999.6
09 13.09 С 2 55 км 10/10 900 м
[]
+20.3 +13.6 65 +23 +23 комфорт 1031.8 1000.0
10 13.09 С 4 70 км 10/10 870 м
[]
+21.4 +13.1 59 +24 +24 комфорт 1031.7 1000.0
11 13.09 СЗ 6-8
{8}
70 км 10/10 930 м
[]
+22.7 +13.1 55 +26 +26 жарко 1031.4 999.8
12 13.09 СЗ 5 70 км 5/5 1020 м
[]
+22.2 +12.6 54 +25 +27 комфорт 1031.2 999.6
13 13.09 СЗ 3-6
{9}
70 км 10/10 1080 м
[]
+22.8 +12.5 52 +26 +26 жарко 1031.1 999.5
14 13.09 С 3-6
{6}
70 км 9/9 1200 м
[]
+22.3 +12.7 55 +25 +26 комфорт 1031.2 999.6
15 13.09 С 3 70 км 10/10 1020 м
[]
+22.2 +13.1 56 +25 +25 комфорт 1031.1 999.5
16 13.09 СВ 2 70 км 8/8 1500 м
[]
+22.4 +12.7 54 +25 +25 комфорт 1031.0 999.4
17 13.09 СЗ 2-4
{5}
70 км 9/9 1500 м
[]
+21.9 +13.4 58 +25 +25 комфорт 1031.1 999.4
18 13.09 С 2 70 км 1/0
[]
+20.0 +13.2 65 +23 +23 комфорт 1031.5 999.6 +14.5 +24.2
19 13.09 С 2-3
{3}
70 км 1/0
[]
+18.7 +13.1 70 +20 +20 1032.0 1000.0
20 13.09 С 2-3
{4}
70 км 1/0
[]
+17.7 +13.1 74 +18 +18 1032.3 1000.2
21 13.09 С 2-4
{4}
65 км ясно +16.7 +12.9 78 +17 +17 1032.9 1000.6
22 13.09 С 2-3
{4}
50 км ясно +16.0 +12.9 82 +16 +16 1032.9 1000.6
23 13.09 С 2 45 км 6/6 960 м
[]
+15.4 +12.7 84 +15 +15 1032.9 1000.5
00 14.09 СВ 2 45 км 1/1 1500 м
[]
+14.8 +12.3 85 +14 +14 1033.1 1000.6
01 14.09 СВ 1-3
{3}
45 км 10/10 1230 м
[]
+14.9 +12.3 84 +15 +15 1033.0 1000.5
02 14.09 СВ 2 45 км 10/10 1350 м
[]
+14.5 +12.0 85 +14 +14 1032.9 1000.4
03 14.09 СВ 2 45 км 10/10 1300 м
[]
+14.7 +12.0 84 +14 +14 1033.0 1000.5
04 14.09 СВ 4-7
{8}
65 км 10/10 1350 м
[]
+14.5 +10.9 79 +13 +13 1032.8 1000.3
05 14.09 В 3 55 км 10/10 1500 м
[]
+13.2 +10.0 81 +12 +12 1033.2 1000.5
06 14.09 СВ 3 65 км 10/0
[]
+13.0 +9.1 77 +12 +12 1033.6 1000.9 +12.9 +19.9
07 14.09 В 3 65 км 9/0
[]
+15.2 +8.5 64 +15 +16 1033.5 1001.0
08 14.09 В 3-4
{5}
65 км 9/0
[]
+16.7 +8.7 59 +17 +18 1033.0 1000.7
09 14.09 ЮВ 2 55 км 3/0
[]
+18.6 +9.2 54 +20 +25 1032.5 1000.4
10 14.09 В 3-5
{5}
45 км ясно +20.2 +10.0 52 +22 +29 комфорт 1032.1 1000.2
11 14.09 СВ 2-4
{5}
40 км ясно +21.7 +10.3 48 +23 +33 комфорт 1031.5 999.8
12 14.09 В 2-6
{6}
40 км ясно +22.1 +9.8 46 +24 +33 комфорт 1030.9 999.2
13 14.09 ЮВ 3-6
{6}
50 км 3/3 1380 м
[]
+23.6 +10.2 43 +25 +30 комфорт 1029.9 998.4
14 14.09 С 3-5
{6}
55 км 5/5 1470 м
[]
+23.3 +9.4 41 +25 +27 комфорт 1029.2 997.7
15 14.09 В 2-3
{6}
55 км ясно +23.7 +9.3 40 +25 +28 комфорт 1028.5 997.1
16 14.09 СВ 2-3
{5}
55 км ясно +23.9 +9.1 39 +25 +26 комфорт 1028.1 996.7
17 14.09 В 2-3
{3}
70 км 4/0
[]
+22.2 +9.4 44 +24 +24 комфорт 1028.2 996.6
18 14.09 СВ 2 65 км 10/0
[]
+20.5 +9.9 51 +23 +23 комфорт 1028.4 996.6 +13.0 +25.0
19 14.09 В 2 70 км 10/0
[]
+18.9 +9.8 55 +20 +20 1028.6 996.7
20 14.09 СВ 2-2
{2}
50 км 4/0
[]
+17.4 +10.1 62 +18 +18 1028.8 996.7
21 14.09 СВ 1-2
{3}
50 км ясно +16.4 +9.9 65 +17 +17 1028.6 996.4
22 14.09 В 1-2
{3}
50 км ясно +14.8 +9.6 71 +15 +15 1028.4 996.0
23 14.09 СВ 1-2
{2}
35 км 1/0
[]
+14.1 +9.8 75 +14 +14 1028.0 995.6
00 15.09 СВ 3 35 км ясно +13.4 +9.7 78 +12 +12 1027.9 995.4
01 15.09 С 1-2
{4}
35 км 1/0
[]
+12.5 +9.5 82 +13 +13 1027.6 995.0
02 15.09 штиль 0-1
{2}
30 км ясно +11.8 +9.4 85 +11 +11 1027.2 994.5
03 15.09 штиль 0-1
{4}
23 км ясно +10.7 +9.0 89 +10 +10 1026.9 994.1
04 15.09 штиль 0-1
{1}
24 км ясно +10.2 +8.7 90 +9 +9 1026.4 993.6
05 15.09 С 1-2
{2}
24 км н/о +9.8 +8.3 90 +9 +9 1026.4 993.5
06 15.09 С 1 22 км 3/0
[]
+10.7 +8.4 86 +10 +11 1026.4 993.6 +9.6 +20.4
07 15.09 штиль 0-1
{2}
30 км 10/0
[]
+13.0 +8.4 74 +13 +14 1026.2 993.7
08 15.09 Ю 2-2
{2}
35 км 8/0
[]
+15.5 +9.5 67 +15 +18 1025.7 993.5
09 15.09 Ю 2 30 км ясно +18.8 +10.6 59 +20 +27 1025.1 993.3
10 15.09 ЮЗ 1-3
{3}
40 км 10/0
[]
+22.1 +12.2 53 +24 +30 комфорт 1024.2 992.8
11 15.09 З 2-4
{4}
60 км 10/0
[]
+24.8 +11.8 44 +26 +31 жарко 1023.1 992.0
12 15.09 З 4-8
{8}
40 км ясно +26.7 +11.8 39 +28 +34 жарко 1022.4 991.5
13 15.09 СЗ 3-8
{8}
40 км н/о +26.5 +11.1 38 +27 +27 жарко 1021.7 990.8
14 15.09 СЗ 5-7
{8}
45 км 1/0
[]
+27.9 +9.3 31 +28 +31 жарко 1020.9 990.1
15 15.09 СЗ 4 55 км 10/0
[]
+27.4 +6.3 26 +27 +28 жарко 1020.5 989.7
16 15.09 СЗ 5-8
{8}
60 км н/о +26.3 +7.3 30 +26 +26 жарко 1020.2 989.3
17 15.09 СЗ 3-5
{7}
70 км 10/0
[]
+24.8 +8.8 36 +25 +25 комфорт 1020.3 989.2
18 15.09 С 3 70 км 4/0
[]
+22.4 +9.0 42 +24 +24 комфорт 1020.8 989.5 +10.7 +28.2
19 15.09 СЗ 1-2
{4}
70 км 1/0
[]
+20.8 +9.5 48 +23 +23 комфорт 1021.2 989.7
20 15.09 З 1 70 км 6/0
[]
+19.5 +9.6 53 +22 +22 комфорт 1021.5 989.8
21 15.09 З 1 65 км 1/0
[]
+17.2 +9.8 62 +18 +18 1021.9 990.0
22 15.09 С 2-2
{3}
70 км н/о +15.8 +9.7 67 +16 +16 1022.0 989.9
23 15.09 Ю 1-2
{2}
65 км н/о +14.6 +9.5 71 +15 +15 1022.0 989.8
00 16.09 С 1 55 км н/о +14.5 +9.7 73 +15 +15 1021.9 989.7
01 16.09 Ю 1-2
{3}
45 км ясно +12.9 +9.2 78 +13 +13 1022.0 989.6
02 16.09 Ю 1-2
{2}
45 км 6/0
[]
+12.0 +8.8 81 +12 +12 1021.8 989.3
03 16.09 З 1 40 км 4/0
[]
+11.1 +8.7 85 +11 +11 1021.7 989.1
04 16.09 С 2-3
{4}
35 км ясно +11.1 +8.9 86 +10 +10 1021.6 989.0
05 16.09 С 1 35 км 9/0
[]
+10.4 +8.6 89 +10 +10 1021.7 989.0
06 16.09 С 1 28 км 10/0
[]
+10.6 +8.6 87 +10 +10 1021.8 989.2 +9.6 +22.4
07 16.09 Ю 1 25 км 9/0
[]
+11.9 +8.6 80 +12 +13 1021.8 989.3
08 16.09 ЮВ 1 35 км 10/0
[]
+14.3 +9.2 71 +15 +17 1021.3 989.1
09 16.09 З 2 40 км 10/0
[]
+16.6 +8.7 60 +17 +20 1021.1 989.1
10 16.09 Ю 2 40 км 10/0
[]
+19.0 +6.6 44 +20 +24 1020.2 988.5
11 16.09 ЮЗ 2 45 км 10/0
[]
+21.3 +8.4 44 +22 +27 комфорт 1019.7 988.3
12 16.09 СЗ 4 70 км 10/0
[]
+23.2 +7.5 36 +24 +27 комфорт 1018.8 987.6
13 16.09 СЗ 4 65 км 10/0
[]
+23.5 +8.0 37 +24 +27 комфорт 1018.3 987.1
14 16.09 СЗ 4 70 км 10/0
[]
+23.2 +6.3 34 +24 +26 комфорт 1017.9 986.7
15 16.09 СЗ 3 70 км 10/0
[]
+22.4 +7.3 38 +23 +25 комфорт 1017.7 986.4
16 16.09 С 2-5
{5}
70 км 10/0
[]
+21.7 +8.6 43 +23 +24 комфорт 1017.7 986.4
17 16.09 СЗ 3 70 км в посл. час дождь {морось} 9/0
[]
+21.0 +7.9 43 +23 +23 комфорт 1017.9 986.5
18 16.09 СЗ 2 70 км в посл. час дождь {морось} 10/10 1500 м
[]
+20.3 +8.1 45 +22 +22 комфорт 1017.8 986.3 +10.3 +23.9 0.0
19 16.09 СЗ 1-2
{3}
70 км в посл. час дождь {морось} 9/0
[]
+19.3 +8.7 50 +21 +21 комфорт 1018.1 986.5
20 16.09 СЗ 2-3
{3}
70 км в посл. час дождь {морось} 10/0
[]
+18.9 +8.9 52 +20 +20 1018.3 986.7
21 16.09 С 3 70 км в посл. час дождь {морось} 10/0 2000 м
[]
+18.7 +10.2 58 +19 +19 1018.4 986.8 0.0
22 16.09 С 3-6
{6}
45 км в посл. час дождь {морось} 10/10 1500 м
[]
+18.0 +11.2 64 +18 +18 1018.5 986.8
23 16.09 С 2-4
{7}
65 км 10/10 1500 м
[]
+17.6 +11.6 68 +18 +18 1018.7 987.0
00 17.09 С 2 40 км {дождь, морось} 10/10 300 м
[]
+17.0 +12.1 73 +17 +17 1018.7 986.9 0.0
01 17.09 СВ 3-5
{5}
65 км 10/10 480 м
[]
+16.3 +12.2 77 +16 +16 1018.8 986.9
02 17.09 С 2-4
{7}
70 км в посл. час морось 10/10 660 м
[]
+15.6 +10.6 72 +16 +16 1019.0 987.0
03 17.09 С 2 70 км {морось} 10/10 720 м
[]
+15.2 +10.4 73 +15 +15 1019.1 987.1 0.0
04 17.09 СВ 2 70 км 9/9 800 м
[]
+14.9 +10.0 72 +15 +15 1019.0 986.9
05 17.09 С 2 70 км 10/10 700 м
[]
+14.7 +9.7 72 +14 +14 1019.3 987.2
06 17.09 СВ 1 65 км {морось} 10/10 300 м
[]
+14.2 +9.2 72 +15 +15 1019.9 987.7 +14.2 +20.4 0.0
07 17.09 С 3 55 км в посл. час морось 10/10 570 м
[]
+13.6 +8.6 72 +13 +13 1020.6 988.3
08 17.09 С 2-4
{6}
65 км в посл. час морось 10/10 570 м
[]
+13.7 +8.2 69 +13 +13 1020.8 988.5
09 17.09 СЗ 3 70 км {морось} 8/8 660 м
[]
+15.8 +8.4 61 +15 +16 1020.2 988.2 0.0
10 17.09 СЗ 4 50 км 9/9 1050 м
[]
+17.5 +6.5 48 +17 +18 1019.9 988.1
11 17.09 СЗ 5 40 км 10/0
[]
+18.7 +5.5 42 +19 +21 1019.4 987.7
12 17.09 З 6 50 км {морось} 9/0
[]
+19.5 +6.2 42 +20 +22 1018.8 987.2
13 17.09 СЗ 5-9
{10}
35 км 9/0
[]
+19.7 +6.2 41 +20 +22 1018.6 987.0
14 17.09 СЗ 4 45 км 10/0
[]
+19.0 +6.1 43 +19 +21 1018.4 986.8
15 17.09 СЗ 7 45 км 10/0
[]
+19.3 +5.3 40 +19 +20 1018.5 986.9
16 17.09 СЗ 7 50 км 9/9 1470 м
[]
+18.6 +5.7 43 +18 +18 1018.9 987.2
17 17.09 С 5 70 км 10/0
[]
+17.1 +4.7 44 +16 +16 1019.5 987.6
18 17.09 С 4 70 км 10/0
[]
+15.9 +4.2 46 +15 +15 1020.1 988.1 +13.5 +20.6
19 17.09 СЗ 4 70 км 9/0
[]
+14.9 +4.7 50 +14 +14 1020.8 988.6
20 17.09 СЗ 3 70 км 10/10 1500 м
[]
+14.1 +5.0 54 +13 +13 1021.5 989.2
21 17.09 СЗ 3 70 км 6/6 1380 м
[]
+13.6 +5.1 56 +13 +13 1022.0 989.7
22 17.09 СВ 3 65 км 9/9 1110 м
[]
+13.4 +5.4 58 +12 +12 1022.8 990.4
23 17.09 СВ 2-4
{7}
65 км ясно +11.9 +5.1 63 +11 +11 1023.6 991.0
00 18.09 СВ 2 65 км ясно +10.6 +4.6 66 +9 +9 1024.4 991.6
01 18.09 С 2-5
{5}
55 км ясно +10.1 +4.4 68 +9 +9 1024.6 991.8
02 18.09 С 2-3
{4}
55 км ясно +9.1 +4.0 70 +8 +8 1025.0 992.0
03 18.09 штиль 0-1
{5}
55 км ясно +8.3 +4.1 75 +8 +8 1025.3 992.2
04 18.09 СЗ 1-2
{2}
55 км ясно +7.4 +4.0 79 +7 +7 1025.7 992.5
05 18.09 ЮЗ 1-1
{2}
40 км ясно +6.0 +3.8 86 +5 +5 1026.3 992.9
06 18.09 штиль 0 45 км ясно +7.7 +4.0 77 +7 +7 1026.5 993.3 +5.7 +15.9
07 18.09 С 2-3
{3}
45 км ясно +9.8 +3.9 67 +8 +10 1026.5 993.6
08 18.09 С 2-3
{5}
45 км ясно +11.8 +3.7 58 +11 +15 1026.9 994.2
09 18.09 СВ 2 55 км 9/9 900 м
[]
+13.9 +3.7 50 +14 +14 1026.7 994.2
10 18.09 СВ 2 55 км 9/9 1110 м
[]
+14.8 +3.4 46 +15 +16 1026.5 994.1
11 18.09 СВ 2-4
{5}
60 км 6/6 1170 м
[]
+14.1 +3.6 49 +14 +18 1026.3 993.9
12 18.09 СВ 1 70 км 8/8 1300 м
[]
+16.0 +3.2 42 +17 +19 1025.7 993.5
13 18.09 СЗ 2-5
{5}
55 км 6/6 1500 м
[]
+16.7 +2.5 38 +17 +20 1025.0 992.9
14 18.09 Ю 2-4
{6}
65 км 1/1 1500 м
[]
+17.5 +1.6 34 +18 +23 1024.5 992.5
15 18.09 СВ 3-6
{6}
50 км ясно +18.2 +1.3 32 +18 +21 1024.2 992.3
16 18.09 СВ 3-6
{7}
55 км ясно +17.3 +1.2 34 +17 +18 1024.2 992.2
17 18.09 С 3-6
{6}
70 км 4/0
[]
+16.3 +0.7 35 +16 +16 1024.5 992.3
18 18.09 СВ 2 70 км ясно +14.1 +0.9 41 +14 +14 1025.1 992.7 +7.7 +18.6
19 18.09 СВ 2-4
{4}
70 км ясно +12.7 +1.1 45 +12 +12 1026.1 993.5
20 18.09 С 1-1
{5}
70 км ясно +11.9 +1.2 48 +12 +12 1026.6 993.9
21 18.09 С 2-3
{5}
70 км ясно +11.4 +1.5 51 +11 +11 1027.0 994.2
22 18.09 С 2-3
{3}
60 км ясно +9.9 +1.9 57 +9 +9 1027.3 994.3
23 18.09 С 2-2
{3}
55 км 1/0
[]
+9.1 +2.2 62 +8 +8 1027.6 994.5
00 19.09 С 2 50 км 9/0
[]
+8.5 +2.3 65 +7 +7 1027.9 994.8
01 19.09 С 2 55 км 10/0
[]
+8.0 +2.5 68 +6 +6 1027.9 994.7
02 19.09 С 1-1
{3}
50 км 4/0
[]
+6.7 +2.4 74 +6 +6 1028.5 995.1
03 19.09 штиль 0 45 км 4/0
[]
+5.5 +2.8 83 +5 +5 1028.7 995.2
04 19.09 С 1-2
{3}
50 км ясно +5.5 +2.3 80 +4 +4 1028.7 995.2
05 19.09 С 2-3
{3}
45 км 1/1 1500 м
[]
+5.7 +2.5 80 +3 +3 1029.2 995.7
06 19.09 С 2 35 км ясно +6.0 +2.4 78 +4 +4 1029.7 996.2 +5.3 +14.2
07 19.09 СВ 2-3
{3}
35 км ясно +8.3 +2.8 68 +7 +8 1029.9 996.7
08 19.09 СВ 3-6
{6}
60 км ясно +11.7 +3.8 58 +10 +13 1030.0 997.2
09 19.09 СВ 4 45 км 1/0
[]
+12.9 +2.9 51 +11 +15 1030.1 997.4
10 19.09 В 2 50 км 8/0
[]
+14.7 +0.8 39 +15 +19 1029.8 997.3
11 19.09 В 3 70 км 8/8 1500 м
[]
+15.3 +0.3 36 +15 +16 1029.6 997.2
12 19.09 СВ 3 45 км 10/0
[]
+15.7 -1.0 32 +15 +19 1029.3 996.9
13 19.09 В 4 45 км 10/0
[]
+16.5 -0.5 31 +16 +19 1029.0 996.7
14 19.09 В 4-8
{8}
35 км 1/0
[]
+16.8 0.0 32 +16 +20 1028.8 996.6
15 19.09 В 3 45 км 8/0
[]
+16.5 -0.4 32 +16 +18 1028.6 996.3
16 19.09 В 3 60 км 10/0
[]
+16.2 0.0 33 +16 +16 1028.5 996.2
17 19.09 В 2 70 км 10/0
[]
+14.9 +0.2 37 +15 +15 1028.6 996.2
18 19.09 СВ 3 70 км 3/0
[]
+13.2 +0.6 42 +12 +12 1029.3 996.6 +6.0 +17.1
19 19.09 В 3-5
{6}
70 км 10/0
[]
+12.1 +0.6 45 +11 +11 1029.6 996.8
20 19.09 В 4-5
{5}
70 км 9/0
[]
+11.0 +0.7 49 +9 +9 1030.5 997.6
21 19.09 З 1 65 км 10/0
[]
+10.0 +0.8 53 +10 +10 1030.8 997.7
22 19.09 СВ 1-2
{2}
60 км 10/0
[]
+9.0 +1.0 57 +9 +9 1031.0 997.8
23 19.09 СВ 2-3
{3}
65 км 9/0
[]
+7.9 +1.2 63 +6 +6 1031.1 997.8
00 20.09 С 2 70 км 9/0
[]
+6.9 +1.4 68 +5 +5 1031.1 997.7
01 20.09 С 1 70 км 4/0
[]
+5.9 +1.2 72 +5 +5 1030.8 997.3

 

Местоположение метеостанции Вюрцбург (Германия): широта 49.77 долгота 9.97 высота над уровнем моря 259 м.

В архиве по умолчанию представлена погода в Вюрцбурге за последнюю неделю. Архивные данные за месяц целиком и за предыдущие месяцы, начиная с января 2011 года, Вы можете получить, выбрав интересующий диапазон дат из раскрывающегося списка и нажав кнопку "Ввод!".


*Определитесь, кто Вы:
робот инопланетянин человек

Внимание! Время в таблицах - всемирное. Для получения местного времени необходимо прибавить поправку, которая равна 1 ч.

Смотрите также архив погоды в соседних городах и на ближайших метеорологических станциях:

Погода в Нидерштеттене (Германия) (43 км)
Погода в Нойхюттене (Германия) (48 км)
Погода в Бад-Киссингене (Германия) (48 км)
Погода в Михельштадте (Германия) (63 км)
Погода в Бамберге (Германия) (69 км)
Погода в Эрингене (Германия) (69 км)
Погода в Фойхтванген-Хайльбронне (Германия) (73 км)
Погода на Вассеркуппе (Германия) (81 км)
Погода в Нюрнберге (Германия) (85 км)
Погода в Кобурге (Германия) (92 км)

Пояснения к столбцам:

Ветер - указаны скорость ветра в м/с - средняя за 10 мин, порывы в срок и между сроками (в фигурных скобках) и направление, откуда дует ветер: С - северный, СВ - северо-восточный, В - восточный, ЮВ - юго-восточный, Ю - южный, ЮЗ - юго-западный, З - западный, СЗ - северо-западный.
Видимость - горизонтальная дальность видимости в метрах или километрах. При видимости от 1 до 10 км при отсутствии осадков обычно наблюдается дымка, при ухудшении видимости до 1 км и менее - туман. В сухую погоду видимость может ухудшаться дымом, пылью или мглою.
Явления - указаны атмосферные явления, наблюдавшиеся в срок или в последний час перед сроком; фигурными скобками обозначены явления, наблюдавшиеся между сроками (за 1-3 часа до срока); квадратными скобками обозначены град или гололедные отложения с указанием их диаметра в мм.
Облачность - указаны через наклонную черту общая и нижняя облачность в баллах и высота нижней границы облаков в метрах; квадратными скобками обозначены формы облаков: Ci - перистые, Cs - перисто-слоистые, Cc - перисто-кучевые, Ac - высококучевые, As - высокослоистые, Sc - слоисто-кучевые, Ns - слоисто-дождевые, Cu - кучевые, Cb - кучево-дождевые. Подробнее классификацию облаков см. в Атласе облаков (PDF).
T - Температура воздуха - температура, измеренная на высоте 2 м над землей.
Td - Температура точки росы - температура, при понижении до которой содержащийся в воздухе водяной пар достигнет насыщения.
f - Относительная влажность воздуха - влажноcть воздуха, измеренная на высоте 2 м над землей.
Te - Эффективная температура - температура, которую ощущает одетый по сезону человек в тени. Характеристика душности погоды. При расчете учитывается влияние влажности воздуха и скорости ветра на теплоощущения человека.
Tes - Эффективная температура на солнце - температура, которую ощущает человек, с поправкой на солнечный нагрев. Характеристика знойности погоды. Зависит от высоты солнца над горизонтом, облачности и скорости ветра. Ночью, в пасмурную погоду, а также при ветре 12 м/с и более поправка равна нулю.
P - Атмосферное давление - приведенное к уровню моря атмосферное давление.
Po - Атмосферное давление - измеренное на уровне метеостанции атмосферное давление.
Tmin - Минимальная температура - минимум температуры воздуха на высоте 2 м над землей.
Tmax - Максимальная температура - максимум температуры воздуха на высоте 2 м над землей.
R - Количество осадков - Количество выпавших осадков за период времени, мм. При наведении курсора мыши на число - период времени, за который выпало указанное количество осадков.
R24 - Количество осадков - Количество выпавших осадков за 24 часа, мм.
S - Снежный покров - Высота снежного покрова, см. При наведении курсора мыши на число - состояние снежного покрова и степень покрытия местности в баллах.